TimeEET,TemperatureF,Dew PointF,Humidity,Sea Level PressureIn,VisibilityMPH,Wind Direction,Wind SpeedMPH,Gust SpeedMPH,PrecipitationIn,Events,Conditions,WindDirDegrees,DateUTC
12:00 AM,66.2,35.6,32,30.01,-9999.0,North,6.9,-,N/A,,Clear,350,2012-11-19 22:00:00
1:00 AM,66.2,37.4,35,30.01,-9999.0,North,6.9,-,N/A,,Clear,350,2012-11-19 23:00:00
2:00 AM,64,36,23,29.99,6,North,4.6,,,,,350,2012-11-20 00:00:00
2:00 AM,64.4,35.6,34,29.98,-9999.0,North,4.6,-,N/A,,Clear,350,2012-11-20 00:00:00
3:00 AM,62.6,35.6,37,29.98,-9999.0,North,5.8,-,N/A,,Clear,350,2012-11-20 01:00:00
4:00 AM,60.8,35.6,39,29.98,-9999.0,North,6.9,-,N/A,,Clear,350,2012-11-20 02:00:00
5:00 AM,60.8,35.6,39,29.98,-9999.0,NNW,5.8,-,N/A,,Clear,340,2012-11-20 03:00:00
6:00 AM,60.8,35.6,39,29.98,-9999.0,North,4.6,-,N/A,,Clear,360,2012-11-20 04:00:00
7:00 AM,60.8,37.4,42,30.01,-9999.0,North,5.8,-,N/A,,Clear,350,2012-11-20 05:00:00
8:00 AM,65,38,26,30.03,6,North,6.9,,,,,0,2012-11-20 06:00:00
8:00 AM,64.4,37.4,37,30.04,-9999.0,North,6.9,-,N/A,,Clear,360,2012-11-20 06:00:00
9:00 AM,69.8,42.8,38,30.04,-9999.0,SSW,6.9,-,N/A,,Clear,210,2012-11-20 07:00:00
10:00 AM,75.2,48.2,38,30.04,-9999.0,NNE,8.1,-,N/A,,Clear,20,2012-11-20 08:00:00
11:00 AM,78.8,51.8,39,30.01,-9999.0,North,6.9,-,N/A,,Clear,360,2012-11-20 09:00:00
12:00 PM,82.4,55.4,39,29.98,-9999.0,North,4.6,-,N/A,,Clear,360,2012-11-20 10:00:00
1:00 PM,84.2,55.4,37,29.95,-9999.0,North,4.6,-,N/A,,Clear,350,2012-11-20 11:00:00
2:00 PM,85,54,24,29.91,6,North,6.9,,,,,350,2012-11-20 12:00:00
2:00 PM,86.0,53.6,33,29.95,-9999.0,North,6.9,-,N/A,,Clear,350,2012-11-20 12:00:00
3:00 PM,86.0,53.6,33,29.92,-9999.0,NNW,4.6,-,N/A,,Clear,330,2012-11-20 13:00:00
4:00 PM,84.2,53.6,35,29.92,-9999.0,NNW,8.1,-,N/A,,Clear,330,2012-11-20 14:00:00
5:00 PM,82.4,53.6,37,29.95,-9999.0,NNW,9.2,-,N/A,,Clear,340,2012-11-20 15:00:00
6:00 PM,80.6,46.4,30,29.95,-9999.0,NNW,9.2,-,N/A,,Clear,340,2012-11-20 16:00:00
7:00 PM,78.8,48.2,34,29.95,-9999.0,NW,6.9,-,N/A,,Clear,320,2012-11-20 17:00:00
8:00 PM,77,47,24,29.95,6,North,8.1,,,,,0,2012-11-20 18:00:00
8:00 PM,77.0,48.2,36,29.98,-9999.0,North,8.1,-,N/A,,Clear,360,2012-11-20 18:00:00
9:00 PM,75.2,46.4,36,29.98,-9999.0,NNW,6.9,-,N/A,,Clear,340,2012-11-20 19:00:00
10:00 PM,73.4,44.6,36,29.98,-9999.0,North,5.8,-,N/A,,Clear,360,2012-11-20 20:00:00
11:00 PM,71.6,44.6,38,29.98,-9999.0,North,6.9,-,N/A,,Clear,360,2012-11-20 21:00:00